| time (UTC) | temp F | wind direction | speed knots | gust knots | rain 1hr in | rain 24hr in | rain mn in | humidity % | barometer mb |
| 20260505211505 | 79 | 136 | 0.9 | 5.2 | 0.00 | 0.00 | 0.00 | 40 | 1012.5 |
| 20260505211006 | 79 | 132 | 1.7 | 7.0 | 0.00 | 0.00 | 0.00 | 38 | 1012.5 |
| 20260505210006 | 79 | 112 | 0.9 | 4.3 | 0.00 | 0.00 | 0.00 | 37 | 1012.5 |
| 20260505205505 | 79 | 255 | 1.7 | 2.6 | 0.00 | 0.00 | 0.00 | 38 | 1012.5 |
| 20260505205005 | 79 | 172 | 1.7 | 7.0 | 0.00 | 0.00 | 0.00 | 37 | 1012.5 |
| 20260505204505 | 79 | 163 | 2.6 | 7.0 | 0.00 | 0.00 | 0.00 | 37 | 1012.5 |
| 20260505203505 | 79 | 77 | 0.9 | 2.6 | 0.00 | 0.00 | 0.00 | 37 | 1013.0 |
| 20260505203005 | 80 | 290 | 1.7 | 6.1 | 0.00 | 0.00 | 0.00 | 36 | 1013.0 |
| 20260505202504 | 80 | 111 | 1.7 | 7.0 | 0.00 | 0.00 | 0.00 | 38 | 1013.0 |
| 20260505202005 | 80 | 296 | 1.7 | 6.1 | 0.00 | 0.00 | 0.00 | 37 | 1013.0 |
| 20260505201505 | 80 | 79 | 1.7 | 7.8 | 0.00 | 0.00 | 0.00 | 36 | 1013.0 |
| 20260505201004 | 80 | 81 | 1.7 | 4.3 | 0.00 | 0.00 | 0.00 | 37 | 1013.2 |
| 20260505200505 | 80 | 272 | 1.7 | 5.2 | 0.00 | 0.00 | 0.00 | 38 | 1013.2 |
| 20260505200005 | 80 | 157 | 0.9 | 2.6 | 0.00 | 0.00 | 0.00 | 40 | 1013.2 |
| 20260505195504 | 80 | 350 | 1.7 | 6.1 | 0.00 | 0.00 | 0.00 | 38 | 1013.2 |
| 20260505195006 | 80 | 292 | 1.7 | 7.0 | 0.00 | 0.00 | 0.00 | 37 | 1013.2 |
| 20260505194005 | 81 | 157 | 1.7 | 7.0 | 0.00 | 0.00 | 0.00 | 39 | 1014.9 |
| 20260505193506 | 80 | 246 | 0.9 | 2.6 | 0.00 | 0.00 | 0.00 | 40 | 1014.9 |
| 20260505193005 | 79 | 116 | 1.7 | 7.0 | 0.00 | 0.00 | 0.00 | 40 | 1014.9 |
| 20260505192506 | 79 | 138 | 1.7 | 6.1 | 0.00 | 0.00 | 0.00 | 38 | 1014.9 |
| 20260505190505 | 79 | 214 | 1.7 | 6.1 | 0.00 | 0.00 | 0.00 | 40 | 1014.9 |
| 20260505190006 | 79 | 251 | 2.6 | 6.1 | 0.00 | 0.00 | 0.00 | 41 | 1014.9 |
| 20260505185005 | 79 | 93 | 1.7 | 4.3 | 0.00 | 0.00 | 0.00 | 39 | 1014.9 |
| 20260505184505 | 78 | 310 | 1.7 | 6.1 | 0.00 | 0.00 | 0.00 | 39 | 1014.9 |
| 20260505183505 | 78 | 83 | 0.9 | 2.6 | 0.00 | 0.00 | 0.00 | 42 | 1014.9 |
| 20260505183006 | 77 | 121 | 1.7 | 4.3 | 0.00 | 0.00 | 0.00 | 41 | 1014.9 |
| 20260505182504 | 78 | 81 | 1.7 | 4.3 | 0.00 | 0.00 | 0.00 | 40 | 1014.9 |
| 20260505182006 | 78 | 241 | 0.9 | 7.0 | 0.00 | 0.00 | 0.00 | 40 | 1014.9 |
| 20260505181006 | 78 | 358 | 0.9 | 6.1 | 0.00 | 0.00 | 0.00 | 43 | 1014.9 |
| 20260505180505 | 78 | 210 | 0.9 | 6.1 | 0.00 | 0.00 | 0.00 | 40 | 1014.9 |
| 20260505180006 | 77 | 123 | 1.7 | 7.0 | 0.00 | 0.00 | 0.00 | 41 | 1014.9 |
| 20260505175505 | 78 | 294 | 1.7 | 5.2 | 0.00 | 0.00 | 0.00 | 40 | 1014.9 |
| 20260505175005 | 78 | 66 | 1.7 | 2.6 | 0.00 | 0.00 | 0.00 | 41 | 1014.9 |
| 20260505174505 | 78 | 349 | 0.9 | 2.6 | 0.00 | 0.00 | 0.00 | 41 | 1014.9 |
| 20260505174006 | 77 | 174 | 1.7 | 2.6 | 0.00 | 0.00 | 0.00 | 41 | 1014.9 |
| 20260505173505 | 78 | 234 | 1.7 | 6.1 | 0.00 | 0.00 | 0.00 | 41 | 1014.9 |
| 20260505173005 | 78 | 184 | 2.6 | 7.0 | 0.00 | 0.00 | 0.00 | 40 | 1014.9 |
| 20260505172506 | 78 | 284 | 1.7 | 6.1 | 0.00 | 0.00 | 0.00 | 43 | 1014.9 |
| 20260505172006 | 78 | 319 | 1.7 | 4.3 | 0.00 | 0.00 | 0.00 | 42 | 1014.9 |
| 20260505171006 | 77 | 99 | 1.7 | 6.1 | 0.00 | 0.00 | 0.00 | 43 | 1014.9 |
| 20260505170506 | 77 | 263 | 1.7 | 4.3 | 0.00 | 0.00 | 0.00 | 45 | 1014.9 |
| 20260505170005 | 77 | 72 | 2.6 | 5.2 | 0.00 | 0.00 | 0.00 | 44 | 1015.0 |
| 20260505165505 | 76 | 80 | 1.7 | 6.1 | 0.00 | 0.00 | 0.00 | 44 | 1015.0 |
| 20260505165005 | 76 | 291 | 2.6 | 6.1 | 0.00 | 0.00 | 0.00 | 44 | 1015.0 |
| 20260505164506 | 76 | 67 | 2.6 | 7.0 | 0.00 | 0.00 | 0.00 | 42 | 1015.0 |
| 20260505164006 | 76 | 136 | 2.6 | 7.0 | 0.00 | 0.00 | 0.00 | 43 | 1015.0 |
| 20260505163505 | 76 | 101 | 2.6 | 7.0 | 0.00 | 0.00 | 0.00 | 44 | 1015.0 |
| 20260505163007 | 76 | 47 | 2.6 | 5.2 | 0.00 | 0.00 | 0.00 | 45 | 1015.0 |
| 20260505162006 | 75 | 24 | 1.7 | 6.1 | 0.00 | 0.00 | 0.00 | 44 | 1015.0 |
| 20260505161505 | 75 | 23 | 1.7 | 7.0 | 0.00 | 0.00 | 0.00 | 44 | 1015.0 |
| 20260505161005 | 76 | 171 | 4.3 | 10.4 | 0.00 | 0.00 | 0.00 | 44 | 1015.0 |
| 20260505153006 | 75 | 108 | 1.7 | 5.2 | 0.00 | 0.00 | 0.00 | 46 | 1015.0 |
| 20260505152505 | 75 | 26 | 1.7 | 6.1 | 0.00 | 0.00 | 0.00 | 46 | 1015.0 |
| 20260505152005 | 76 | 222 | 1.7 | 6.1 | 0.00 | 0.00 | 0.00 | 45 | 1015.0 |
| 20260505151506 | 76 | 340 | 0.0 | 6.1 | 0.00 | 0.00 | 0.00 | 47 | 1015.0 |
| 20260505150505 | 75 | 80 | 0.0 | 0.9 | 0.00 | 0.00 | 0.00 | 50 | 1015.0 |
| 20260505140505 | 68 | 193 | 0.0 | 0.0 | 0.00 | 0.00 | 0.00 | 67 | 1014.8 |
| 20260505125005 | 56 | 229 | 0.0 | 0.0 | 0.00 | 0.00 | 0.00 | 86 | 1013.6 |
| 20260505124504 | 55 | 229 | 0.0 | 0.0 | 0.00 | 0.00 | 0.00 | 87 | 1013.6 |
| 20260505123005 | 53 | 229 | 0.0 | 0.0 | 0.00 | 0.00 | 0.00 | 91 | 1013.6 |
| 20260505122505 | 52 | 229 | 0.0 | 0.0 | 0.00 | 0.00 | 0.00 | 91 | 1013.6 |
| 20260505122005 | 52 | 229 | 0.0 | 0.0 | 0.00 | 0.00 | 0.00 | 91 | 1013.6 |
| 20260505121505 | 51 | 229 | 0.0 | 0.0 | 0.00 | 0.00 | 0.00 | 92 | 1013.6 |
| 20260505121005 | 51 | 229 | 0.0 | 0.0 | 0.00 | 0.00 | 0.00 | 92 | 1013.6 |
| 20260505120505 | 51 | 229 | 0.0 | 0.0 | 0.00 | 0.00 | 0.00 | 92 | 1013.6 |
| 20260505120006 | 50 | 229 | 0.0 | 0.0 | 0.00 | 0.00 | 0.00 | 92 | 1013.6 |
| 20260505114505 | 48 | 229 | 0.0 | 0.0 | 0.00 | 0.00 | 0.00 | 93 | 1013.6 |
| 20260505114005 | 48 | 229 | 0.0 | 0.0 | 0.00 | 0.00 | 0.00 | 93 | 1013.6 |
| 20260505113505 | 48 | 229 | 0.0 | 0.0 | 0.00 | 0.00 | 0.00 | 93 | 1013.6 |
| 20260505113006 | 47 | 229 | 0.0 | 0.0 | 0.00 | 0.00 | 0.00 | 93 | 1013.6 |
| 20260505112505 | 47 | 229 | 0.0 | 0.0 | 0.00 | 0.00 | 0.00 | 93 | 1013.6 |
| 20260505112005 | 47 | 229 | 0.0 | 0.0 | 0.00 | 0.00 | 0.00 | 93 | 1013.6 |
| 20260505111505 | 47 | 229 | 0.0 | 0.0 | 0.00 | 0.00 | 0.00 | 93 | 1013.6 |
| 20260505111006 | 46 | 229 | 0.0 | 0.0 | 0.00 | 0.00 | 0.00 | 93 | 1013.6 |
| 20260505110505 | 46 | 229 | 0.0 | 0.0 | 0.00 | 0.00 | 0.00 | 93 | 1013.6 |
| 20260505101505 | 46 | 229 | 0.0 | 0.0 | 0.00 | 0.00 | 0.00 | 92 | 1013.7 |
| 20260505101006 | 46 | 229 | 0.0 | 0.0 | 0.00 | 0.00 | 0.00 | 92 | 1013.7 |
| 20260505100505 | 46 | 229 | 0.0 | 0.0 | 0.00 | 0.00 | 0.00 | 92 | 1013.7 |
| 20260505100005 | 46 | 229 | 0.0 | 0.0 | 0.00 | 0.00 | 0.00 | 92 | 1013.7 |
| 20260505095505 | 47 | 229 | 0.0 | 0.0 | 0.00 | 0.00 | 0.00 | 92 | 1013.7 |
| 20260505095005 | 47 | 229 | 0.0 | 0.0 | 0.00 | 0.00 | 0.00 | 92 | 1013.7 |
| 20260505094507 | 47 | 229 | 0.0 | 0.0 | 0.00 | 0.00 | 0.00 | 92 | 1013.7 |
| 20260505094005 | 47 | 229 | 0.0 | 0.0 | 0.00 | 0.00 | 0.00 | 92 | 1013.7 |
| 20260505093505 | 47 | 229 | 0.0 | 0.0 | 0.00 | 0.00 | 0.00 | 92 | 1013.7 |
| 20260505093005 | 47 | 229 | 0.0 | 0.0 | 0.00 | 0.00 | 0.00 | 92 | 1013.7 |
| 20260505092005 | 47 | 229 | 0.0 | 0.0 | 0.00 | 0.00 | 0.00 | 92 | 1013.7 |
| 20260505091505 | 47 | 229 | 0.0 | 0.0 | 0.00 | 0.00 | 0.00 | 92 | 1013.7 |
| 20260505091005 | 47 | 229 | 0.0 | 0.0 | 0.00 | 0.00 | 0.00 | 92 | 1013.7 |
| 20260505090505 | 47 | 229 | 0.0 | 0.0 | 0.00 | 0.00 | 0.00 | 92 | 1013.7 |
| 20260505090005 | 47 | 229 | 0.0 | 0.0 | 0.00 | 0.00 | 0.00 | 92 | 1013.7 |
| 20260505085504 | 47 | 229 | 0.0 | 0.0 | 0.00 | 0.00 | 0.00 | 92 | 1013.7 |
| 20260505085005 | 47 | 229 | 0.0 | 0.0 | 0.00 | 0.00 | 0.00 | 92 | 1013.7 |
| 20260505084505 | 48 | 229 | 0.0 | 0.0 | 0.00 | 0.00 | 0.00 | 92 | 1013.7 |
| 20260505083006 | 48 | 229 | 0.0 | 0.0 | 0.00 | 0.00 | 0.00 | 92 | 1013.7 |
| 20260505082005 | 48 | 229 | 0.0 | 0.0 | 0.00 | 0.00 | 0.00 | 92 | 1013.7 |
| 20260505081506 | 48 | 229 | 0.0 | 0.0 | 0.00 | 0.00 | 0.00 | 91 | 1013.7 |
| 20260505081006 | 48 | 229 | 0.0 | 0.0 | 0.00 | 0.00 | 0.00 | 92 | 1013.7 |
| 20260505080505 | 48 | 229 | 0.0 | 0.0 | 0.00 | 0.00 | 0.00 | 92 | 1013.7 |
| 20260505080005 | 48 | 229 | 0.0 | 0.0 | 0.00 | 0.00 | 0.00 | 91 | 1013.7 |
| 20260505075505 | 49 | 229 | 0.0 | 0.0 | 0.00 | 0.00 | 0.00 | 91 | 1013.7 |
| 20260505075006 | 49 | 229 | 0.0 | 0.0 | 0.00 | 0.00 | 0.00 | 91 | 1013.7 |
| 20260505074005 | 49 | 229 | 0.0 | 0.0 | 0.00 | 0.00 | 0.00 | 91 | 1013.7 |
| 20260505073505 | 49 | 229 | 0.0 | 0.0 | 0.00 | 0.00 | 0.00 | 91 | 1013.7 |
| 20260505073006 | 49 | 229 | 0.0 | 0.0 | 0.00 | 0.00 | 0.00 | 91 | 1013.7 |
| 20260505072505 | 49 | 229 | 0.0 | 0.0 | 0.00 | 0.00 | 0.00 | 91 | 1013.7 |
| 20260505072005 | 49 | 229 | 0.0 | 0.0 | 0.00 | 0.00 | 0.00 | 91 | 1013.7 |
| 20260505071505 | 49 | 229 | 0.0 | 0.0 | 0.00 | 0.00 | 0.00 | 91 | 1013.7 |
| 20260505071005 | 49 | 229 | 0.0 | 0.0 | 0.00 | 0.00 | 0.00 | 91 | 1013.7 |
| 20260505070505 | 49 | 229 | 0.0 | 0.0 | 0.00 | 0.00 | 0.00 | 91 | 1013.7 |
| 20260505070005 | 49 | 229 | 0.0 | 0.0 | 0.00 | 0.00 | 0.00 | 90 | 1013.7 |
| 20260505065506 | 50 | 229 | 0.0 | 0.0 | 0.00 | 0.00 | 0.00 | 91 | 1013.7 |
| 20260505064505 | 50 | 229 | 0.0 | 0.0 | 0.00 | 0.00 | 0.00 | 90 | 1013.7 |
| 20260505064006 | 50 | 229 | 0.0 | 0.0 | 0.00 | 0.00 | 0.00 | 90 | 1014.2 |
| 20260505063505 | 50 | 229 | 0.0 | 0.0 | 0.00 | 0.00 | 0.00 | 90 | 1014.2 |
| 20260505063005 | 50 | 229 | 0.0 | 0.0 | 0.00 | 0.00 | 0.00 | 90 | 1014.2 |
| 20260505062505 | 50 | 229 | 0.0 | 0.0 | 0.00 | 0.00 | 0.00 | 90 | 1014.2 |
| 20260505062005 | 50 | 229 | 0.0 | 0.0 | 0.00 | 0.00 | 0.00 | 90 | 1014.2 |
| 20260505061505 | 50 | 229 | 0.0 | 0.0 | 0.00 | 0.00 | 0.00 | 89 | 1014.2 |
| 20260505061005 | 51 | 229 | 0.0 | 0.0 | 0.00 | 0.00 | 0.00 | 89 | 1014.2 |
| 20260505060505 | 51 | 229 | 0.0 | 0.0 | 0.00 | 0.00 | 0.00 | 89 | 1014.2 |
| 20260505060005 | 51 | 229 | 0.0 | 0.0 | 0.00 | 0.00 | 0.00 | 89 | 1014.2 |
| 20260505055505 | 51 | 229 | 0.0 | 0.0 | 0.00 | 0.00 | 0.00 | 89 | 1014.2 |
| 20260505055005 | 51 | 229 | 0.0 | 0.0 | 0.00 | 0.00 | 0.00 | 89 | 1014.2 |
| 20260505054504 | 51 | 229 | 0.0 | 0.0 | 0.00 | 0.00 | 0.00 | 89 | 1014.2 |
| 20260505053505 | 51 | 229 | 0.0 | 0.0 | 0.00 | 0.00 | 0.00 | 89 | 1014.2 |
| 20260505053005 | 52 | 229 | 0.0 | 0.0 | 0.00 | 0.00 | 0.00 | 88 | 1014.2 |
| 20260505052506 | 52 | 229 | 0.0 | 0.0 | 0.00 | 0.00 | 0.00 | 88 | 1014.2 |
| 20260505052005 | 52 | 229 | 0.0 | 0.0 | 0.00 | 0.00 | 0.00 | 88 | 1014.2 |
| 20260505051505 | 52 | 229 | 0.0 | 0.0 | 0.00 | 0.00 | 0.00 | 88 | 1014.2 |
| 20260505051005 | 52 | 229 | 0.0 | 0.0 | 0.00 | 0.00 | 0.00 | 88 | 1014.2 |
| 20260505050505 | 52 | 229 | 0.0 | 0.0 | 0.00 | 0.00 | 0.00 | 88 | 1014.2 |
| 20260505041505 | 53 | 177 | 0.0 | 0.0 | 0.00 | 0.00 | 0.00 | 85 | 1014.0 |
| 20260505041005 | 54 | 177 | 0.0 | 0.0 | 0.00 | 0.00 | 0.00 | 84 | 1014.0 |
| 20260505040506 | 54 | 177 | 0.0 | 0.0 | 0.00 | 0.00 | 0.00 | 84 | 1014.0 |
| 20260505040005 | 54 | 177 | 0.0 | 0.0 | 0.00 | 0.00 | 0.00 | 84 | 1014.2 |
| 20260505035506 | 54 | 177 | 0.0 | 0.0 | 0.00 | 0.00 | 0.00 | 83 | 1014.2 |
| 20260505035006 | 54 | 177 | 0.0 | 0.0 | 0.00 | 0.00 | 0.00 | 83 | 1014.2 |
| 20260505034504 | 55 | 177 | 0.0 | 0.0 | 0.00 | 0.00 | 0.00 | 83 | 1014.2 |
| 20260505034005 | 55 | 177 | 0.0 | 0.0 | 0.00 | 0.00 | 0.00 | 83 | 1014.2 |
| 20260505033505 | 55 | 177 | 0.0 | 0.0 | 0.00 | 0.00 | 0.00 | 82 | 1014.2 |
| 20260505033006 | 55 | 177 | 0.0 | 0.0 | 0.00 | 0.00 | 0.00 | 82 | 1014.2 |
| 20260505032506 | 55 | 177 | 0.0 | 0.0 | 0.00 | 0.00 | 0.00 | 81 | 1014.2 |
| 20260505032005 | 56 | 177 | 0.0 | 0.0 | 0.00 | 0.00 | 0.00 | 81 | 1014.2 |
| 20260505031506 | 56 | 177 | 0.0 | 0.0 | 0.00 | 0.00 | 0.00 | 81 | 1014.2 |
| 20260505031005 | 56 | 177 | 0.0 | 0.0 | 0.00 | 0.00 | 0.00 | 80 | 1014.2 |
| 20260505030505 | 56 | 177 | 0.0 | 0.0 | 0.00 | 0.00 | 0.00 | 80 | 1014.2 |
| 20260505030005 | 56 | 177 | 0.0 | 0.0 | 0.00 | 0.00 | 0.00 | 79 | 1013.3 |
| 20260505025007 | 57 | 177 | 0.0 | 0.0 | 0.00 | 0.00 | 0.00 | 78 | 1013.3 |
| 20260505024506 | 57 | 177 | 0.0 | 0.0 | 0.00 | 0.00 | 0.00 | 77 | 1013.3 |
| 20260505024005 | 58 | 177 | 0.0 | 0.0 | 0.00 | 0.00 | 0.00 | 77 | 1013.3 |
| 20260505023506 | 58 | 177 | 0.0 | 0.0 | 0.00 | 0.00 | 0.00 | 77 | 1013.3 |
| 20260505023006 | 58 | 177 | 0.0 | 0.0 | 0.00 | 0.00 | 0.00 | 76 | 1013.3 |
| 20260505022504 | 58 | 177 | 0.0 | 0.0 | 0.00 | 0.00 | 0.00 | 75 | 1013.3 |
| 20260505021505 | 59 | 177 | 0.0 | 0.9 | 0.00 | 0.00 | 0.00 | 74 | 1013.3 |
| 20260505021005 | 59 | 177 | 0.0 | 0.0 | 0.00 | 0.00 | 0.00 | 73 | 1013.3 |
| 20260505020505 | 59 | 177 | 0.0 | 0.0 | 0.00 | 0.00 | 0.00 | 72 | 1013.3 |
| 20260505020005 | 60 | 177 | 0.0 | 0.0 | 0.00 | 0.00 | 0.00 | 71 | 1013.3 |
| 20260505015505 | 60 | 177 | 0.0 | 0.0 | 0.00 | 0.00 | 0.00 | 70 | 1013.3 |
| 20260505015006 | 60 | 177 | 0.0 | 0.0 | 0.00 | 0.00 | 0.00 | 69 | 1013.3 |
| 20260505014506 | 61 | 177 | 0.0 | 0.0 | 0.00 | 0.00 | 0.00 | 68 | 1013.3 |
| 20260505014005 | 61 | 177 | 0.0 | 0.0 | 0.00 | 0.00 | 0.00 | 67 | 1013.3 |
| 20260505013505 | 62 | 177 | 0.0 | 0.0 | 0.00 | 0.00 | 0.00 | 66 | 1013.3 |
| 20260505013005 | 62 | 177 | 0.0 | 0.0 | 0.00 | 0.00 | 0.00 | 65 | 1013.3 |
| 20260505012506 | 63 | 177 | 0.0 | 0.0 | 0.00 | 0.00 | 0.00 | 64 | 1013.3 |
| 20260505012005 | 63 | 177 | 0.0 | 0.0 | 0.00 | 0.00 | 0.00 | 63 | 1013.3 |
| 20260505011510 | 63 | 177 | 0.0 | 0.0 | 0.00 | 0.00 | 0.00 | 62 | 1013.3 |
| 20260505011005 | 64 | 177 | 0.0 | 0.0 | 0.00 | 0.00 | 0.00 | 61 | 1013.3 |
| 20260505010505 | 65 | 177 | 0.0 | 0.0 | 0.00 | 0.00 | 0.00 | 60 | 1013.3 |
| 20260505010006 | 65 | 177 | 0.0 | 0.0 | 0.00 | 0.00 | 0.00 | 58 | 1013.1 |
| 20260505005005 | 66 | 177 | 0.0 | 0.0 | 0.00 | 0.00 | 0.00 | 57 | 1013.1 |
| 20260505004505 | 67 | 177 | 0.0 | 0.0 | 0.00 | 0.00 | 0.00 | 56 | 1013.1 |
| 20260505004006 | 68 | 177 | 0.0 | 0.0 | 0.00 | 0.00 | 0.00 | 53 | 1013.1 |
| 20260505003506 | 69 | 177 | 0.0 | 0.0 | 0.00 | 0.00 | 0.00 | 48 | 1013.1 |
| 20260505003006 | 69 | 177 | 0.0 | 0.0 | 0.00 | 0.00 | 0.00 | 46 | 1013.1 |
| 20260505002505 | 70 | 177 | 0.0 | 0.0 | 0.00 | 0.00 | 0.00 | 45 | 1013.1 |
| 20260505002005 | 71 | 177 | 0.0 | 0.9 | 0.00 | 0.00 | 0.00 | 43 | 1013.1 |
| 20260505001505 | 72 | 122 | 0.0 | 1.7 | 0.00 | 0.00 | 0.00 | 42 | 1013.1 |
| 20260505001005 | 72 | 117 | 0.9 | 2.6 | 0.00 | 0.00 | 0.00 | 42 | 1013.1 |
| 20260505000506 | 72 | 121 | 0.0 | 1.7 | 0.00 | 0.00 | 0.00 | 41 | 1013.1 |
| 20260504235505 | 73 | 137 | 0.9 | 2.6 | 0.00 | 0.00 | 0.00 | 41 | 1013.1 |
| 20260504235006 | 73 | 4 | 0.0 | 2.6 | 0.00 | 0.00 | 0.00 | 41 | 1013.1 |
| 20260504234505 | 74 | 124 | 0.9 | 2.6 | 0.00 | 0.00 | 0.00 | 40 | 1013.1 |
| 20260504234005 | 74 | 151 | 1.7 | 4.3 | 0.00 | 0.00 | 0.00 | 40 | 1013.2 |
| 20260504233506 | 74 | 166 | 0.9 | 2.6 | 0.00 | 0.00 | 0.00 | 41 | 1013.2 |
| 20260504233005 | 74 | 135 | 1.7 | 2.6 | 0.00 | 0.00 | 0.00 | 40 | 1013.2 |
| 20260504232504 | 75 | 161 | 0.0 | 2.6 | 0.00 | 0.00 | 0.00 | 40 | 1013.2 |
| 20260504232005 | 75 | 153 | 0.9 | 2.6 | 0.00 | 0.00 | 0.00 | 39 | 1013.2 |
| 20260504231505 | 75 | 14 | 0.9 | 2.6 | 0.00 | 0.00 | 0.00 | 39 | 1013.2 |
| 20260504231006 | 75 | 142 | 1.7 | 5.2 | 0.00 | 0.00 | 0.00 | 38 | 1013.2 |
| 20260504230505 | 75 | 126 | 0.9 | 2.6 | 0.00 | 0.00 | 0.00 | 37 | 1013.2 |
| 20260504230005 | 75 | 122 | 0.9 | 2.6 | 0.00 | 0.00 | 0.00 | 37 | 1013.2 |
| 20260504225506 | 76 | 253 | 0.9 | 2.6 | 0.00 | 0.00 | 0.00 | 37 | 1013.2 |
| 20260504225006 | 76 | 131 | 1.7 | 4.3 | 0.00 | 0.00 | 0.00 | 36 | 1013.2 |
| 20260504224006 | 76 | 78 | 0.9 | 2.6 | 0.00 | 0.00 | 0.00 | 36 | 1013.2 |
| 20260504223505 | 76 | 197 | 0.9 | 2.6 | 0.00 | 0.00 | 0.00 | 36 | 1013.2 |
| 20260504223005 | 76 | 181 | 0.9 | 2.6 | 0.00 | 0.00 | 0.00 | 36 | 1013.2 |
| 20260504222505 | 77 | 193 | 0.9 | 2.6 | 0.00 | 0.00 | 0.00 | 35 | 1013.2 |
| 20260504222006 | 77 | 145 | 0.9 | 2.6 | 0.00 | 0.00 | 0.00 | 36 | 1013.2 |
| 20260504221505 | 77 | 206 | 0.9 | 2.6 | 0.00 | 0.00 | 0.00 | 35 | 1013.2 |
| 20260504221006 | 77 | 65 | 0.9 | 5.2 | 0.00 | 0.00 | 0.00 | 36 | 1013.2 |
| 20260504220505 | 77 | 103 | 0.9 | 2.6 | 0.00 | 0.00 | 0.00 | 36 | 1013.2 |
| 20260504220005 | 77 | 11 | 0.0 | 4.3 | 0.00 | 0.00 | 0.00 | 36 | 1013.1 |
| 20260504215504 | 77 | 168 | 0.9 | 2.6 | 0.00 | 0.00 | 0.00 | 36 | 1013.1 |
| 20260504214005 | 78 | 126 | 1.7 | 6.1 | 0.00 | 0.00 | 0.00 | 37 | 1013.1 |
| 20260504213506 | 78 | 193 | 1.7 | 6.1 | 0.00 | 0.00 | 0.00 | 38 | 1013.1 |
| 20260504213007 | 78 | 79 | 0.9 | 6.1 | 0.00 | 0.00 | 0.00 | 39 | 1013.1 |
| 20260504212005 | 77 | 219 | 0.9 | 4.3 | 0.00 | 0.00 | 0.00 | 40 | 1013.1 |